Location: Eurasberg
(48.3353°N, 11.0839°E)
Time: 11:13:25
(UTC+00:00)

Cosmos 1703 Rocket - Pass Details

Date: 18 January 2026
Orbit: 598 x 626 km, 82.5° (Epoch: 10 February)

Event Time Altitude Azimuth Distance (km) Brightness Sun altitude
Rises 05:34:30 0° 354° (N) 2,859 6.8 -13.8°
Reaches altitude 10° 05:36:46 10° 360° (N) 1,953 6.0 -13.5°
Maximum altitude 05:40:58 51° 76° (ENE) 766 4.4 -12.8°
Drops below altitude 10° 05:45:10 10° 153° (SSE) 1,948 6.8 -12.1°
Sets 05:47:26 0° 159° (SSE) 2,850 7.6 -11.8°
